GW3092 Weather Reports


Display with metric or nautical units.
time (UTC)temp
F
wind
direction
speed
MPH
gust
MPH
rain 1hr
in
rain 24hr
in
rain mn
in
humidity
%
barometer
mb
20260505021540 56 119 3.0 7.0 0.00 0.00 0.00 66 1015.5
20260505020052 56 135 5.0 9.0 0.00 0.00 0.00 67 1015.7
20260505014546 58 145 4.0 7.0 0.00 0.00 0.00 62 1015.8
20260505013044 59 330 5.0 7.0 0.00 0.00 0.00 60 1015.8
20260505011546 60 330 6.0 8.0 0.00 0.00 0.00 60 1015.8
20260505010057 60 113 6.0 8.0 0.00 0.00 0.00 60 1016.1
20260505004557 59 330 3.0 5.0 0.00 0.00 0.00 62 1016.3
20260505003045 58 330 4.0 6.0 0.00 0.00 0.00 66 1016.4
20260505001544 58 330 4.0 7.0 0.00 0.00 0.00 68 1016.6
20260505000042 59 56 5.0 7.0 0.00 0.00 0.00 69 1016.8
20260504234540 58 17 4.0 5.0 0.00 0.00 0.00 75 1017.0
20260504233047 58 22 5.0 6.0 0.00 0.00 0.00 79 1017.1
20260504231613 58 14 4.0 6.0 0.00 0.00 0.00 78 1017.1
20260504230044 58 10 4.0 6.0 0.00 0.00 0.00 80 1017.2
20260504224544 58 4 4.0 8.0 0.00 0.00 0.00 79 1017.3
20260504223039 58 8 6.0 8.0 0.00 0.00 0.00 78 1017.4
20260504221554 58 16 4.0 6.0 0.00 0.00 0.00 77 1017.4
20260504220043 58 19 4.0 5.0 0.00 0.00 0.00 74 1017.4
20260504214543 59 26 3.0 5.0 0.00 0.00 0.00 73 1017.5
20260504213043 59 0 0.0 3.0 0.00 0.00 0.00 72 1017.6
20260504211538 59 315 1.0 2.0 0.00 0.00 0.00 69 1017.6
20260504210049 60 315 1.0 3.0 0.00 0.00 0.00 68 1017.7
20260504204544 59 315 2.0 3.0 0.00 0.00 0.00 67 1017.8
20260504203044 59 282 1.0 3.0 0.00 0.00 0.00 69 1017.7
20260504201539 61 291 3.0 5.0 0.00 0.00 0.00 70 1017.6
20260504200046 61 272 2.0 4.0 0.00 0.00 0.00 63 1017.6
20260504194542 62 256 4.0 8.0 0.00 0.00 0.00 56 1017.6
20260504193047 63 223 2.0 7.0 0.00 0.00 0.00 51 1017.6
20260504191607 64 174 2.0 5.0 0.00 0.00 0.00 50 1017.5
20260504190040 64 204 3.0 10.0 0.00 0.00 0.00 48 1017.3
20260504184549 63 203 3.0 9.0 0.00 0.00 0.00 49 1017.2
20260504183045 63 197 1.0 4.0 0.00 0.00 0.00 52 1017.2
20260504181544 64 215 4.0 8.0 0.00 0.00 0.00 51 1017.0
20260504180043 65 247 5.0 8.0 0.00 0.00 0.00 47 1016.9
20260504174538 67 235 2.0 4.0 0.00 0.00 0.00 45 1016.9
20260504173045 68 245 2.0 6.0 0.00 0.00 0.00 48 1016.9
20260504171546 69 213 3.0 6.0 0.00 0.00 0.00 47 1017.0
20260504081553 72 229 2.0 7.0 0.00 0.00 0.00 34 1018.8
20260504044543 56 330 9.0 12.0 0.00 0.00 0.00 51 1017.6
20260504043044 56 330 8.0 11.0 0.00 0.00 0.00 51 1017.7
20260504041541 55 330 7.0 12.0 0.00 0.00 0.00 51 1017.6
20260504040041 55 330 9.0 13.0 0.00 0.00 0.00 52 1017.5
20260504034543 55 83 9.0 12.0 0.00 0.00 0.00 52 1017.5
20260504033055 55 330 8.0 11.0 0.00 0.00 0.00 52 1017.6
20260504031559 56 330 8.0 10.0 0.00 0.00 0.00 51 1017.5
20260504030106 56 330 7.0 11.0 0.00 0.00 0.00 50 1017.6
20260504024544 55 330 8.0 10.0 0.00 0.00 0.00 52 1017.7
20260504023046 57 92 6.0 9.0 0.00 0.00 0.00 51 1017.9